sat.trackr.live / text

‹ back to catalog

STARLINK-35011

NORAD 66082 · 2025-235AA

PAYLOAD ACTIVE UNKNOWN

§ Identity

Operator
Country
US
Launch date
2025-10-19
Launch site
AFETR
Launch vehicle
Mass (kg)
RCS (m²)

Purposes: comms

External: N2YO · Heavens-Above · Gunter

§ Orbital elements

Epoch: 2026-09-20T16:53:14.985024Z

Period
94.01 min
Inclination
53.1603°
Eccentricity
0.0001957
Mean motion
15.31699516 rev/d
Perigee alt
469.4 km
Apogee alt
472.1 km
Semi-major
6,848.9 km
B*
1.8617e-4
RAAN
57.6953°
Arg perigee
88.4953°
Mean anomaly
271.6273°
Rev number
5,280

§ Raw data

STARLINK-350111 66082U 25235AA  26263.70364566  .00005416  00000+0  18617-3 0  99962 66082  53.1603  57.6953 0001957  88.4953 271.6273 15.31699516 52805

JSON: /api/v1/satellites/66082 · /tle

For live sub-satellite position, see the globe view (requires WebGL).

§ Visibility from observer

Set your observer location to see the next 7 days of passes ≥ 10°. The values pass through the URL so the page stays shareable.

No JS? Fill the form by hand. The geolocation button needs JavaScript.